Time,TemperatureF,DewpointF,PressureIn,WindDirection,WindDirectionDegrees,WindSpeedMPH,WindSpeedGustMPH,Humidity,HourlyPrecipIn,Conditions,Clouds,dailyrainin,SoftwareType,DateUTC
2013-03-06 00:00:00,37.9,27.5,29.55,ESE,110,2.0,9.0,66,0.00,,,0.00,Wunderground v.1.15,2013-03-06 05:00:00,
2013-03-06 00:05:00,37.7,28.1,29.55,NNE,33,2.0,9.0,68,0.00,,,0.00,Wunderground v.1.15,2013-03-06 05:05:00,
2013-03-06 00:10:00,37.2,28.7,29.55,East,98,3.0,3.0,71,0.00,,,0.00,Wunderground v.1.15,2013-03-06 05:10:00,
2013-03-06 00:15:00,36.8,29.0,29.55,NE,41,2.0,9.0,73,0.00,,,0.00,Wunderground v.1.15,2013-03-06 05:15:00,
2013-03-06 00:20:00,36.4,29.2,29.55,West,259,1.0,9.0,75,0.00,,,0.00,Wunderground v.1.15,2013-03-06 05:20:00,
2013-03-06 00:25:00,35.9,29.7,29.55,WNW,293,2.0,9.0,78,0.00,,,0.00,Wunderground v.1.15,2013-03-06 05:25:00,
2013-03-06 00:30:00,35.1,29.9,29.55,NNE,30,3.0,3.0,81,0.00,,,0.00,Wunderground v.1.15,2013-03-06 05:30:00,
2013-03-06 00:35:00,34.7,30.4,29.54,East,88,2.0,9.0,84,0.00,,,0.00,Wunderground v.1.15,2013-03-06 05:35:00,
2013-03-06 00:40:00,34.4,30.4,29.55,NNE,25,2.0,9.0,85,0.00,,,0.00,Wunderground v.1.15,2013-03-06 05:40:00,
2013-03-06 00:45:00,34.3,30.5,29.55,NE,54,2.0,9.0,86,0.00,,,0.00,Wunderground v.1.15,2013-03-06 05:45:00,
2013-03-06 00:50:00,34.1,30.4,29.55,NE,39,2.0,9.0,86,0.00,,,0.00,Wunderground v.1.15,2013-03-06 05:50:00,
2013-03-06 00:55:00,33.9,30.4,29.55,North,356,1.0,9.0,87,0.00,,,0.00,Wunderground v.1.15,2013-03-06 05:55:00,
2013-03-06 01:00:00,33.8,30.6,29.55,NE,40,1.0,9.0,88,0.00,,,0.00,Wunderground v.1.15,2013-03-06 06:00:00,
2013-03-06 01:05:00,33.7,30.5,29.55,NE,44,1.0,9.0,88,0.00,,,0.00,Wunderground v.1.15,2013-03-06 06:05:00,
2013-03-06 01:14:00,33.4,30.8,29.55,NE,36,1.0,2.0,90,0.00,,,0.00,Wunderground v.1.15,2013-03-06 06:14:00,
2013-03-06 01:19:00,33.3,31.0,29.55,NE,40,2.0,2.0,91,0.00,,,0.00,Wunderground v.1.15,2013-03-06 06:19:00,
2013-03-06 01:24:00,33.2,30.9,29.55,NE,42,1.0,9.0,91,0.00,,,0.00,Wunderground v.1.15,2013-03-06 06:24:00,
2013-03-06 01:29:00,33.1,30.8,29.55,NE,39,1.0,9.0,91,0.00,,,0.00,Wunderground v.1.15,2013-03-06 06:29:00,
2013-03-06 01:34:00,33.1,31.0,29.55,ENE,58,1.0,9.0,92,0.00,,,0.00,Wunderground v.1.15,2013-03-06 06:34:00,
2013-03-06 01:40:00,33.0,30.9,29.55,ENE,60,1.0,1.0,92,0.00,,,0.00,Wunderground v.1.15,2013-03-06 06:40:00,
2013-03-06 01:45:00,33.0,30.9,29.55,ENE,68,1.0,9.0,92,0.00,,,0.00,Wunderground v.1.15,2013-03-06 06:45:00,
2013-03-06 01:50:00,33.0,30.9,29.56,ENE,69,0.0,9.0,92,0.00,,,0.00,Wunderground v.1.15,2013-03-06 06:50:00,
2013-03-06 01:55:00,32.9,31.1,29.55,ESE,104,1.0,9.0,93,0.00,,,0.00,Wunderground v.1.15,2013-03-06 06:55:00,
2013-03-06 02:00:00,32.9,31.1,29.56,NE,37,2.0,2.0,93,0.00,,,0.00,Wunderground v.1.15,2013-03-06 07:00:00,
2013-03-06 02:05:00,32.8,31.0,29.56,NE,50,2.0,9.0,93,0.00,,,0.00,Wunderground v.1.15,2013-03-06 07:05:00,
2013-03-06 02:10:00,32.8,31.0,29.56,East,82,2.0,2.0,93,0.00,,,0.00,Wunderground v.1.15,2013-03-06 07:10:00,
2013-03-06 02:15:00,32.8,31.0,29.56,NNE,27,1.0,9.0,93,0.00,,,0.00,Wunderground v.1.15,2013-03-06 07:15:00,
2013-03-06 02:20:00,32.8,31.0,29.57,NE,39,1.0,1.0,93,0.00,,,0.00,Wunderground v.1.15,2013-03-06 07:20:00,
2013-03-06 02:25:00,32.7,30.9,29.57,NE,56,1.0,9.0,93,0.00,,,0.00,Wunderground v.1.15,2013-03-06 07:25:00,
2013-03-06 02:30:00,32.7,30.9,29.57,NE,45,0.0,9.0,93,0.00,,,0.00,Wunderground v.1.15,2013-03-06 07:30:00,
2013-03-06 02:35:00,32.6,30.8,29.58,ENE,59,0.0,9.0,93,0.00,,,0.00,Wunderground v.1.15,2013-03-06 07:35:00,
2013-03-06 02:40:00,32.6,30.8,29.58,NE,55,0.0,9.0,93,0.00,,,0.00,Wunderground v.1.15,2013-03-06 07:40:00,
2013-03-06 02:45:00,32.5,30.7,29.57,NE,46,0.0,9.0,93,0.00,,,0.00,Wunderground v.1.15,2013-03-06 07:45:00,
2013-03-06 02:50:00,32.5,30.7,29.58,NE,46,0.0,9.0,93,0.00,,,0.00,Wunderground v.1.15,2013-03-06 07:50:00,
2013-03-06 02:55:00,32.4,30.6,29.58,NE,37,0.0,9.0,93,0.00,,,0.00,Wunderground v.1.15,2013-03-06 07:55:00,
2013-03-06 03:04:00,32.4,30.9,29.57,NE,49,0.0,9.0,94,0.00,,,0.00,Wunderground v.1.15,2013-03-06 08:04:00,
2013-03-06 03:09:00,32.3,30.8,29.57,NE,48,0.0,9.0,94,0.00,,,0.00,Wunderground v.1.15,2013-03-06 08:09:00,
2013-03-06 03:14:00,32.3,30.8,29.58,NE,40,0.0,9.0,94,0.00,,,0.00,Wunderground v.1.15,2013-03-06 08:14:00,
2013-03-06 03:20:00,32.3,30.8,29.58,East,94,0.0,9.0,94,0.00,,,0.00,Wunderground v.1.15,2013-03-06 08:20:00,
2013-03-06 03:25:00,32.3,30.8,29.58,East,94,0.0,9.0,94,0.00,,,0.00,Wunderground v.1.15,2013-03-06 08:25:00,
2013-03-06 03:30:00,32.3,30.8,29.58,East,94,0.0,9.0,94,0.00,,,0.00,Wunderground v.1.15,2013-03-06 08:30:00,
2013-03-06 03:35:00,32.3,30.8,29.58,NE,54,0.0,9.0,94,0.00,,,0.00,Wunderground v.1.15,2013-03-06 08:35:00,
2013-03-06 03:40:00,32.3,30.8,29.59,NE,54,0.0,9.0,94,0.00,,,0.00,Wunderground v.1.15,2013-03-06 08:40:00,
2013-03-06 03:45:00,32.3,30.8,29.59,NE,36,0.0,9.0,94,0.00,,,0.00,Wunderground v.1.15,2013-03-06 08:45:00,
2013-03-06 03:50:00,32.3,30.8,29.59,NE,56,0.0,9.0,94,0.00,,,0.00,Wunderground v.1.15,2013-03-06 08:50:00,
2013-03-06 03:55:00,32.3,30.8,29.59,NE,56,0.0,9.0,94,0.00,,,0.00,Wunderground v.1.15,2013-03-06 08:55:00,
2013-03-06 04:00:00,32.3,30.8,29.60,NE,56,0.0,9.0,94,0.00,,,0.00,Wunderground v.1.15,2013-03-06 09:00:00,
2013-03-06 04:05:00,32.3,31.0,29.60,NE,56,0.0,9.0,95,0.00,,,0.00,Wunderground v.1.15,2013-03-06 09:05:00,
2013-03-06 04:10:00,32.3,31.0,29.60,ENE,57,0.0,9.0,95,0.00,,,0.00,Wunderground v.1.15,2013-03-06 09:10:00,
2013-03-06 04:15:00,32.3,31.0,29.60,NE,56,0.0,9.0,95,0.00,,,0.00,Wunderground v.1.15,2013-03-06 09:15:00,
2013-03-06 04:20:00,32.3,31.0,29.60,NE,56,0.0,9.0,95,0.00,,,0.00,Wunderground v.1.15,2013-03-06 09:20:00,
2013-03-06 04:25:00,32.4,31.1,29.61,NE,56,0.0,9.0,95,0.00,,,0.00,Wunderground v.1.15,2013-03-06 09:25:00,
2013-03-06 04:30:00,32.3,31.0,29.61,NE,56,0.0,9.0,95,0.00,,,0.00,Wunderground v.1.15,2013-03-06 09:30:00,
2013-03-06 04:35:00,32.4,31.1,29.61,NE,56,0.0,9.0,95,0.00,,,0.00,Wunderground v.1.15,2013-03-06 09:35:00,
2013-03-06 04:40:00,32.4,31.1,29.62,NE,56,0.0,9.0,95,0.00,,,0.00,Wunderground v.1.15,2013-03-06 09:40:00,
2013-03-06 04:45:00,32.4,31.1,29.62,NE,56,0.0,9.0,95,0.00,,,0.00,Wunderground v.1.15,2013-03-06 09:45:00,
2013-03-06 04:50:00,32.4,31.1,29.62,NNE,28,0.0,9.0,95,0.00,,,0.00,Wunderground v.1.15,2013-03-06 09:50:00,
2013-03-06 04:55:00,32.4,31.1,29.62,ENE,75,0.0,9.0,95,0.00,,,0.00,Wunderground v.1.15,2013-03-06 09:55:00,
2013-03-06 05:00:00,32.5,31.2,29.62,NE,45,0.0,9.0,95,0.00,,,0.00,Wunderground v.1.15,2013-03-06 10:00:00,
2013-03-06 05:05:00,32.5,31.2,29.63,NE,45,0.0,9.0,95,0.00,,,0.00,Wunderground v.1.15,2013-03-06 10:05:00,
2013-03-06 05:10:00,32.4,31.1,29.63,NE,45,0.0,9.0,95,0.00,,,0.00,Wunderground v.1.15,2013-03-06 10:10:00,
2013-03-06 05:15:00,32.5,31.2,29.63,NE,46,0.0,9.0,95,0.00,,,0.00,Wunderground v.1.15,2013-03-06 10:15:00,
2013-03-06 05:20:00,32.5,31.2,29.63,NE,45,0.0,9.0,95,0.00,,,0.00,Wunderground v.1.15,2013-03-06 10:20:00,
2013-03-06 05:30:00,32.5,31.2,29.63,NW,321,0.0,9.0,95,0.00,,,0.00,Wunderground v.1.15,2013-03-06 10:30:00,
2013-03-06 05:35:00,32.5,31.2,29.64,NW,321,0.0,9.0,95,0.00,,,0.00,Wunderground v.1.15,2013-03-06 10:35:00,
2013-03-06 05:40:00,32.5,31.2,29.64,NW,321,0.0,9.0,95,0.00,,,0.00,Wunderground v.1.15,2013-03-06 10:40:00,
2013-03-06 05:45:00,32.5,31.2,29.64,NW,321,0.0,9.0,95,0.00,,,0.00,Wunderground v.1.15,2013-03-06 10:45:00,
2013-03-06 05:50:00,32.5,31.2,29.65,NW,321,0.0,9.0,95,0.00,,,0.00,Wunderground v.1.15,2013-03-06 10:50:00,
2013-03-06 05:55:00,32.5,31.2,29.65,NE,44,0.0,9.0,95,0.00,,,0.00,Wunderground v.1.15,2013-03-06 10:55:00,
2013-03-06 06:00:00,32.6,31.3,29.65,NNE,32,0.0,9.0,95,0.00,,,0.00,Wunderground v.1.15,2013-03-06 11:00:00,
2013-03-06 06:05:00,32.5,31.2,29.65,NE,45,0.0,9.0,95,0.00,,,0.00,Wunderground v.1.15,2013-03-06 11:05:00,
2013-03-06 06:10:00,32.5,31.2,29.65,NE,45,0.0,9.0,95,0.00,,,0.00,Wunderground v.1.15,2013-03-06 11:10:00,
2013-03-06 06:15:00,32.5,31.2,29.66,NE,45,0.0,9.0,95,0.00,,,0.00,Wunderground v.1.15,2013-03-06 11:15:00,
2013-03-06 06:20:00,32.5,31.2,29.66,NE,45,0.0,9.0,95,0.00,,,0.00,Wunderground v.1.15,2013-03-06 11:20:00,
2013-03-06 06:25:00,32.5,31.2,29.66,NE,45,0.0,9.0,95,0.00,,,0.00,Wunderground v.1.15,2013-03-06 11:25:00,
2013-03-06 06:29:00,32.5,31.2,29.66,NE,46,0.0,9.0,95,0.00,,,0.00,Wunderground v.1.15,2013-03-06 11:29:00,
2013-03-06 06:34:00,32.4,31.1,29.66,NE,46,0.0,9.0,95,0.00,,,0.00,Wunderground v.1.15,2013-03-06 11:34:00,
2013-03-06 06:40:00,32.4,31.1,29.66,NE,46,0.0,9.0,95,0.00,,,0.00,Wunderground v.1.15,2013-03-06 11:40:00,
2013-03-06 06:45:00,32.4,31.1,29.66,NE,45,0.0,9.0,95,0.00,,,0.00,Wunderground v.1.15,2013-03-06 11:45:00,
2013-03-06 06:50:00,32.4,31.1,29.66,NE,45,0.0,9.0,95,0.00,,,0.00,Wunderground v.1.15,2013-03-06 11:50:00,
2013-03-06 06:55:00,32.4,31.1,29.67,NE,45,0.0,9.0,95,0.00,,,0.00,Wunderground v.1.15,2013-03-06 11:55:00,
2013-03-06 07:00:00,32.4,31.1,29.67,NE,45,0.0,9.0,95,0.00,,,0.00,Wunderground v.1.15,2013-03-06 12:00:00,
2013-03-06 07:04:00,32.5,31.2,29.67,WNW,287,0.0,9.0,95,0.00,,,0.00,Wunderground v.1.15,2013-03-06 12:04:00,
2013-03-06 07:09:00,32.4,31.1,29.67,WNW,287,0.0,9.0,95,0.00,,,0.00,Wunderground v.1.15,2013-03-06 12:09:00,
2013-03-06 07:15:00,32.5,31.2,29.67,WNW,286,0.0,9.0,95,0.00,,,0.00,Wunderground v.1.15,2013-03-06 12:15:00,
2013-03-06 07:20:00,32.5,31.2,29.68,NW,317,0.0,9.0,95,0.00,,,0.00,Wunderground v.1.15,2013-03-06 12:20:00,
2013-03-06 07:25:00,32.5,31.2,29.68,NW,318,0.0,9.0,95,0.00,,,0.00,Wunderground v.1.15,2013-03-06 12:25:00,
2013-03-06 07:30:00,32.5,31.2,29.68,North,11,0.0,9.0,95,0.00,,,0.00,Wunderground v.1.15,2013-03-06 12:30:00,
2013-03-06 07:34:00,32.5,31.2,29.69,West,280,0.0,9.0,95,0.00,,,0.00,Wunderground v.1.15,2013-03-06 12:34:00,
2013-03-06 07:39:00,32.5,31.5,29.69,West,280,0.0,9.0,96,0.00,,,0.00,Wunderground v.1.15,2013-03-06 12:39:00,
2013-03-06 07:44:00,32.5,31.2,29.69,North,354,0.0,9.0,95,0.00,,,0.00,Wunderground v.1.15,2013-03-06 12:44:00,
2013-03-06 07:49:00,32.5,31.2,29.69,NNE,17,0.0,9.0,95,0.00,,,0.00,Wunderground v.1.15,2013-03-06 12:49:00,
2013-03-06 07:54:00,32.5,31.2,29.70,NNW,347,0.0,9.0,95,0.00,,,0.00,Wunderground v.1.15,2013-03-06 12:54:00,
2013-03-06 07:59:00,32.6,31.6,29.70,NNW,347,0.0,9.0,96,0.00,,,0.00,Wunderground v.1.15,2013-03-06 12:59:00,
2013-03-06 08:04:00,32.6,31.6,29.70,NNW,347,0.0,9.0,96,0.00,,,0.00,Wunderground v.1.15,2013-03-06 13:04:00,
2013-03-06 08:10:00,32.7,31.7,29.70,NNW,347,0.0,9.0,96,0.00,,,0.00,Wunderground v.1.15,2013-03-06 13:10:00,
2013-03-06 08:15:00,32.7,31.4,29.70,West,281,0.0,9.0,95,0.00,,,0.00,Wunderground v.1.15,2013-03-06 13:15:00,
2013-03-06 08:20:00,32.7,31.4,29.71,West,263,0.0,9.0,95,0.00,,,0.00,Wunderground v.1.15,2013-03-06 13:20:00,
2013-03-06 08:25:00,32.7,31.7,29.71,West,263,0.0,9.0,96,0.00,,,0.00,Wunderground v.1.15,2013-03-06 13:25:00,
2013-03-06 08:30:00,32.7,31.7,29.71,NE,50,0.0,9.0,96,0.00,,,0.00,Wunderground v.1.15,2013-03-06 13:30:00,
2013-03-06 08:35:00,32.7,31.4,29.71,NE,49,0.0,9.0,95,0.00,,,0.00,Wunderground v.1.15,2013-03-06 13:35:00,
2013-03-06 08:45:00,32.8,31.8,29.72,NE,50,0.0,9.0,96,0.00,,,0.00,Wunderground v.1.15,2013-03-06 13:45:00,
2013-03-06 08:50:00,32.9,31.9,29.72,West,269,0.0,9.0,96,0.00,,,0.00,Wunderground v.1.15,2013-03-06 13:50:00,
2013-03-06 08:55:00,32.9,31.9,29.72,ENE,65,0.0,9.0,96,0.00,,,0.00,Wunderground v.1.15,2013-03-06 13:55:00,
2013-03-06 09:00:00,32.9,31.9,29.72,West,271,0.0,9.0,96,0.00,,,0.00,Wunderground v.1.15,2013-03-06 14:00:00,
2013-03-06 09:05:00,33.0,32.0,29.73,WSW,239,0.0,9.0,96,0.00,,,0.00,Wunderground v.1.15,2013-03-06 14:05:00,